Location: Valley View Observatory
(41.0081°N, 76.5874°W)
Time: 01:30:47
(UTC-04:00)

Daily predictions for brighter satellites

Satellite Brightness Start Highest point End
(mag) Time Altitude Azimuth Time Altitude Azimuth Time Altitude Azimuth
Cosmos 2237 Rocket 3.5 00:12:24 37° NNW 00:12:24 37° NNW 00:16:38 10° N
COSMOS 2455 3.8 00:05:54 10° NNW 00:10:05 44° N 00:10:05 44° N
Cosmos 2369 Rocket 4.3 00:09:52 10° N 00:13:27 19° NE 00:13:27 19° NE
CENTAUR R/B 3.2 00:23:39 10° NW 00:30:29 67° WNW 00:30:29 67° WNW
ATLAS CENTAUR R/B 3.9 00:24:18 10° NW 00:33:12 45° N 00:33:12 45° N
USA 215 4.2 00:46:20 38° NE 00:47:24 40° NNE 00:53:25 10° NW
CZ-2C R/B 4.3 01:01:25 10° N 01:04:26 29° NNW 01:04:26 29° NNW
SL-16 R/B 4.0 01:21:36 26° NW 01:21:36 26° NW 01:25:14 10° N
Mayak 1.8 01:21:09 10° N 01:21:40 13° N 01:21:40 13° N
Cosmos 1943 Rocket 3.8 01:29:47 10° N 01:33:00 31° NNE 01:33:00 31° NNE
Cosmos 2369 Rocket 3.9 01:52:46 10° NNW 01:55:12 26° NNW 01:55:12 26° NNW
Cosmos 1943 4.4 02:12:12 37° N 02:12:12 37° N 02:15:47 10° NNE
BREEZE-M DEB (TANK) 4.1 02:11:46 56° NE 02:11:46 56° NE 02:22:37 10° ENE
SL-16 R/B 4.0 02:19:36 26° E 02:21:24 31° ENE 02:26:42 10° N
USA 215 4.5 02:33:40 29° WNW 02:33:40 29° WNW 02:36:41 10° NW
ADEOS Rocket 3.4 02:35:20 10° NNE 02:39:29 51° NE 02:39:29 51° NE
NPP 4.3 02:46:02 10° NNE 02:50:11 53° NE 02:50:11 53° NE
Resurs 1-4 Rocket 2.8 02:59:56 10° NNE 03:04:34 47° E 03:04:34 47° E
ARIANE 5 R/B 3.5 03:01:50 10° NNE 03:06:36 41° E 03:06:36 41° E
COSMOS 2406 3.3 03:14:18 72° NE 03:14:18 72° NE 03:19:28 10° NNE
MOS 1 Rocket 4.2 03:14:11 10° NNE 03:17:37 41° ENE 03:17:37 41° ENE
Cosmos 1943 Rocket 4.4 03:14:00 10° NW 03:14:29 12° NW 03:14:29 12° NW
Cosmos 292 Rocket 4.4 03:23:11 54° ENE 03:23:11 54° ENE 03:27:10 10° NNE
Sich 1 4.2 03:18:53 10° N 03:22:39 41° ENE 03:22:39 41° ENE
CZ-2D R/B 2.2 03:20:33 10° NNE 03:25:45 74° E 03:25:45 74° E
Cosmos 2285 Rocket 3.9 03:26:51 75° S 03:27:24 83° ESE 03:33:50 10° NNE
Cosmos 1300 4.5 03:28:52 30° ENE 03:28:52 30° ENE 03:31:33 10° NNE
Cosmos 540 Rocket 4.4 03:31:10 39° NW 03:31:10 39° NW 03:35:07 10° N
IRS-1D 3.4 03:32:04 10° NNE 03:37:11 87° N 03:37:11 87° N
BREEZE M DEB (TANK) 2.9 03:40:16 74° ENE 03:40:16 74° ENE 03:48:36 10° ESE
CZ-3A R/B 3.7 03:37:06 10° NW 03:50:25 - SSE 03:43:26 44° W
MOZ.5/SAFIR/RUBIN 5/SL-8 4.1 03:44:21 54° ESE 03:45:05 63° ENE 03:49:44 10° N
Spot 4 Rocket 3.9 03:41:26 10° N 03:46:34 73° WNW 03:46:34 73° WNW
CBERS 1 LM4 rocket 4.4 03:43:56 10° N 03:49:10 78° WNW 03:49:29 75° WSW
ADEOS II 4.2 03:45:57 10° NE 03:49:59 22° E 03:54:01 10° SE
Cosmos 2123 Rocket 4.3 03:45:42 10° NNW 03:51:28 47° W 03:51:28 47° W
Lacrosse 5 3.0 03:49:45 10° NW 03:54:35 42° NE 03:59:23 10° ESE
Cosmos 1459 Rocket 4.4 03:52:30 30° SSE 03:55:29 59° E 04:01:26 10° NNE
Cosmos 1633 Rocket 3.0 03:51:40 10° N 03:55:55 80° NE 03:55:55 80° NE
Cosmos 2082 Rocket 3.7 03:53:58 19° SSE 03:56:56 30° ESE 04:01:47 10° NE
ADEOS 3.4 03:53:33 10° N 03:58:47 77° WNW 03:59:25 67° SW
Cosmos 1726 3.2 04:01:54 37° NNW 04:01:54 37° NNW 04:04:22 10° N
Cosmos 2228 Rocket 3.5 04:02:17 46° SE 04:03:16 58° E 04:07:38 10° NNE
SL-16 R/B 2.8 04:04:43 44° W 04:04:48 44° W 04:10:42 10° NNW
USA 229 DEB 4.2 04:07:29 10° NW 04:14:01 38° WSW 04:14:05 38° WSW
USA 229 4.2 04:07:35 10° NW 04:14:07 39° WSW 04:14:19 39° WSW
Cosmos 1315 Rocket 3.9 04:11:15 10° NNW 04:13:44 32° NW 04:13:44 32° NW
Cosmos 1328 Rocket 3.4 04:17:08 65° SSW 04:17:44 83° W 04:22:06 10° N
NOSS 3-1 (A) 4.0 04:11:42 10° NW 04:19:25 90° WSW 04:27:55 10° SSE
Cosmos 2221 4.4 04:20:44 17° NW 04:20:44 17° NW 04:22:43 10° NNW
Cosmos 1656 4.4 04:15:18 10° NNW 04:20:55 54° ENE 04:26:28 10° SE
Meteor 2-3 Rocket 4.4 04:16:16 10° N 04:21:50 55° ENE 04:27:24 10° SSE
Meteor 2-10 4.2 04:22:32 39° SSW 04:24:41 71° W 04:30:18 10° N
ADEOS Rocket 4.5 04:22:35 10° NNW 04:25:47 16° WNW 04:26:26 16° WNW
Cosmos 1892 3.5 04:23:49 10° N 04:27:35 51° E 04:31:10 11° SSE
Cosmos 2369 3.8 04:22:18 10° NNW 04:27:59 79° ENE 04:33:38 10° SSE
Cosmos 1538 Rocket 4.3 04:26:52 41° WSW 04:28:19 54° WNW 04:33:35 10° N
In-Cosmos 22 Rocket 4.0 04:25:35 10° NNW 04:30:56 70° W 04:34:27 21° S
Cosmos 2061 Rocket 4.0 04:28:51 24° SSW 04:32:55 80° W 04:39:22 10° N
OE (NEXTSAT) 4.4 04:33:45 59° WNW 04:34:14 69° NNW 04:37:49 10° ENE
UNKNOWN OBJECT B 3.3 04:31:36 10° N 04:35:28 41° WNW 04:35:51 40° W
Cosmos 923 Rocket 4.0 04:34:15 28° SSW 04:37:03 83° ESE 04:42:19 10° NNE
Cosmos 2016 Rocket 3.9 04:34:36 18° S 04:39:14 89° W 04:45:22 10° N
Cosmos 1933 Rocket 3.5 04:36:07 10° NNW 04:40:35 74° W 04:43:42 19° S
BREEZE-M DEB (TANK) 3.4 04:38:34 17° WNW 04:41:16 65° NNE 04:50:33 10° ESE
Cosmos 1151 Rocket 2.9 04:41:22 32° SSW 04:43:17 76° W 04:47:34 10° N
Hubble Space Telescope 2.9 04:44:31 14° S 04:44:31 14° S 04:46:00 10° SSE
Resurs 1-4 Rocket 3.4 04:40:33 10° NNW 04:44:31 22° WNW 04:45:39 20° W
ARIANE 5 R/B 3.8 04:41:27 10° NNW 04:45:39 25° WNW 04:46:56 23° W
NOSS 3-1 (C) 4.2 04:39:53 10° NW 04:47:18 50° WSW 04:55:20 10° S
Meteor 1-27 4.1 04:44:07 18° S 04:48:27 85° W 04:54:05 10° N
Cosmos 1833 Rocket 2.7 04:45:25 21° SSW 04:49:19 82° ESE 04:55:00 10° NNE
CZ-2D R/B 4.2 04:47:46 10° N 04:51:18 31° WNW 04:52:00 29° W
Cosmos 1725 Rocket 4.0 04:47:58 10° S 04:54:08 85° E 05:00:20 10° N
Cosmos 1680 Rocket 3.5 04:51:05 19° SSW 04:54:54 89° WNW 05:00:16 10° NNE
Cosmos 1802 Rocket 4.2 04:57:19 20° SW 05:01:32 50° WNW 05:07:39 10° N
Cosmos 2112 Rocket 4.0 04:58:06 16° SSW 05:02:28 89° WNW 05:07:51 10° NNE
PSLV R/B 3.7 05:02:49 33° SW 05:03:19 36° SSW 05:06:20 10° SE
CZ-4B R/B 3.2 04:59:28 10° NNE 05:03:59 83° ESE 05:08:31 10° S
Okean O Rocket 1.9 04:59:43 10° NNE 05:04:08 67° ESE 05:08:29 10° S
CZ-2D R/B 3.9 05:02:20 10° NNW 05:05:18 15° WNW 05:07:04 13° W
Cosmos 1980 Rocket 3.1 05:01:17 10° NNW 05:06:46 52° ENE 05:12:14 10° SE
Tiangong 2 1.0 05:08:15 28° WSW 05:09:47 87° NNW 05:13:02 10° ENE
Shenzhou-11 Module 2.2 05:14:00 22° W 05:15:49 69° N 05:18:54 10° ENE
Cosmos 2278 4.0 05:11:11 10° NW 05:16:29 42° WSW 05:21:44 10° S
Cosmos 1455 2.5 05:16:37 16° SSW 05:19:17 44° W 05:22:54 10° N
Cosmos 2056 Rocket 4.3 05:15:33 10° NNW 05:20:52 57° ENE 05:26:11 10° SSE
Cosmos 1697 Rocket 2.6 05:15:36 10° NNW 05:21:15 72° WSW 05:26:53 10° SSE
Tsikada Rocket 4.0 05:15:44 10° NNW 05:22:00 67° W 05:28:18 10° S
ADEOS II 2.5 05:24:55 10° N 05:29:54 45° WNW 05:34:52 10° SW
COSMOS 2487 3.8 05:28:16 16° WSW 05:30:15 25° WNW 05:33:14 10° N
CZ-4B DEB 4.2 05:29:49 10° N 05:35:21 73° WNW 05:40:48 10° SSW
Lacrosse 5 2.4 05:32:53 10° WNW 05:37:28 35° SW 05:42:02 10° S
CRYOSAT 2 4.4 05:35:09 10° N 05:40:01 85° E 05:44:52 10° S
Cosmos 2082 Rocket 2.9 05:35:50 11° SW 05:40:51 38° WNW 05:46:06 10° N
Meteor PRIRODA 3.6 05:38:22 10° N 05:42:03 84° WNW 05:45:41 10° SSW
Cosmos 2084 3.7 05:40:10 11° SW 05:43:59 47° NW 05:47:45 10° NNE
Cosmos 1862 4.0 05:40:40 10° N 05:44:42 61° E 05:48:43 10° SSE
Cosmos 1869 Rocket 3.8 05:42:13 10° NNW 05:46:32 48° W 05:50:47 10° SSW
COSMO-SKYMED 1 4.4 05:45:32 10° SE 05:49:32 37° ENE 05:53:32 10° N
OAO 2 Rocket 4.0 05:46:28 10° WSW 05:51:02 39° S 05:55:42 10° ESE
Lacrosse 4 Rocket 2.8 05:48:37 10° S 05:52:47 42° ESE 05:57:02 10° NE
Meteor 2-10 Rocket 4.4 05:48:34 10° S 05:54:15 64° E 06:00:01 10° NNE
